CAPE
0 0 0 0 0 0 0 0 0 0 0 0 0 0 0 0 0 0 0 0 0 0 0 0 0 0 0 0 58 5 93 7 0 2 20 26 17 77 104 392 525 497 466 827 763
0 0 0 0 0 0 0 0 0 0 0 0 0 0 0 0 0 0 0 0 0 0 0 0 0 0 0 0 35 39 0 0 1 0 0 14 34 0 112 153 22 0 477 835 778
0 0 0 0 0 0 0 0 0 0 0 0 0 0 0 0 0 0 0 0 0 0 0 0 0 0 0 0 74 31 0 24 8 0 15 53 119 26 57 98 47 13 1 302 736
0 0 0 0 0 0 0 0 0 0 0 0 0 0 0 0 0 0 0 0 0 0 0 0 0 0 0 0 28 59 28 12 65 1 115 133 151 61 48 225 109 12 26 219 606
0 0 0 0 0 0 0 0 0 0 0 0 0 0 0 0 0 0 0 0 0 0 0 0 0 0 0 0 0 172 84 14 108 122 68 187 77 147 184 329 404 285 63 503 858
0 0 0 0 0 0 0 0 0 0 0 0 0 0 0 0 0 0 0 0 0 0 0 0 0 0 0 0 0 34 138 102 65 107 97 81 62 255 220 382 638 723 520 722 1067
0 0 0 0 0 0 0 0 0 0 0 0 0 0 0 0 0 0 0 0 0 0 0 0 0 0 0 0 0 15 31 77 6 0 6 5 1 77 116 6 562 684 1055 1170 1232
0 0 0 0 0 0 0 0 0 0 0 0 0 0 0 0 0 0 0 0 0 0 0 0 0 0 0 0 0 0 8 3 6 2 45 9 27 151 0 22 132 742 1210 1514 1498
0 0 0 0 0 0 0 0 0 0 0 0 0 0 0 0 0 0 0 0 0 0 0 0 0 0 0 0 0 0 0 0 33 4 3 0 3 0 113 6 29 721 1168 1546 1571
0 0 0 0 0 0 0 0 0 0 0 0 0 0 0 0 0 0 0 0 0 0 0 0 0 0 0 0 0 0 0 0 0 9 0 0 0 3 57 70 79 380 1088 1295 1147
0 0 0 0 0 0 0 0 0 0 0 0 0 0 0 0 0 0 0 0 0 0 0 0 0 0 13 0 7 4 0 0 17 6 0 0 10 0 17 129 158 97 80 159 0
0 0 0 0 0 0 0 0 0 0 0 0 0 0 0 0 0 0 0 0 0 0 0 0 0 0 0 0 0 2 4 12 13 49 31 3 10 64 85 135 93 70 109 412 226
0 0 0 0 0 0 0 0 0 0 0 0 0 0 0 0 0 0 0 0 0 0 0 0 0 0 27 10 8 0 29 15 0 1 11 11 4 65 40 105 42 16 1 0 0
0 0 0 0 0 0 0 0 0 0 0 0 0 0 0 0 0 0 0 0 0 0 0 0 15 7 21 4 1 1 0 0 0 0 0 0 0 12 37 14 35 15 7 14 6
0 0 0 0 0 0 0 0 0 0 0 0 0 0 0 0 0 0 0 0 0 0 0 0 1 16 19 16 1 0 0 0 0 0 0 0 0 0 3 5 5 33 5 0 390
0 0 0 0 0 0 0 0 0 0 0 0 0 0 0 0 0 0 0 0 0 0 0 0 0 0 1 0 0 4 0 0 0 0 0 6 12 0 0 0 0 0 55 0 105
0 0 0 0 0 0 0 0 0 0 0 0 0 0 0 0 0 0 0 0 0 0 0 0 0 0 2 0 0 0 1 0 0 0 0 0 28 2 0 0 0 0 129 28 0
0 0 0 0 0 0 0 0 0 0 0 0 0 0 0 0 0 0 0 0 0 0 0 0 10 1 2 5 0 23 1 0 0 0 18 180 161 109 0 0 0 0 4 14 101
0 0 0 0 0 0 0 0 0 0 0 2 15 0 0 0 0 0 0 0 23 5 2 0 2 3 0 0 8 46 0 0 5 11 13 114 27 35 0 0 16 3 0 3 9
0 0 0 0 0 0 0 0 0 0 0 0 0 3 7 2 0 8 58 41 31 3 0 8 2 6 114 156 54 7 5 22 55 12 3 18 19 9 5 6 0 0 0 1 0
0 0 0 0 0 0 0 0 0 0 0 0 0 0 0 0 0 0 20 17 14 7 2 10 65 89 39 64 41 63 10 141 102 155 26 0 61 22 0 0 0 0 25 0 0
0 0 0 0 0 0 0 0 0 0 0 0 0 0 0 15 0 17 7 0 39 37 0 15 38 0 0 0 0 0 36 195 120 70 179 134 23 3 0 0 0 17 12 0 0
0 0 0 0 0 0 0 0 0 0 0 0 0 0 0 0 12 0 0 30 136 110 127 0 0 0 0 0 0 6 24 26 94 106 97 62 26 0 0 0 0 23 0 0 0
0 0 92 36 0 0 0 0 0 0 0 0 0 0 0 0 0 30 38 87 28 4 2 4 0 0 0 0 17 11 56 33 85 38 44 2 1 0 18 0 0 0 1 1 0
0 0 0 0 0 0 0 89 3 0 6 18 0 0 0 0 30 149 344 61 0 0 126 226 76 168 196 44 25 8 6 94 111 69 2 5 0 0 0 0 0 0 0 0 0
0 0 0 0 0 0 8 59 25 0 1 70 76 1 0 0 31 162 253 196 95 0 126 509 214 369 229 193 14 20 120 187 146 36 30 2 0 0 0 0 14 2 0 0 0
0 0 0 0 0 0 19 24 12 0 10 67 86 140 315 247 317 206 56 0 39 5 159 591 436 405 131 70 37 73 192 249 119 5 0 0 0 0 0 0 9 3 0 0 0
CIN
0 0 0 0 0 0 0 0 0 0 0 0 0 0 0 0 0 0 0 0 0 0 0 0 0 0 0 0 -81 -68 -59 -52 0 -81 -78 -182 -157 -35 -42 -118 -207 -230 -154 -63 -153
0 0 0 0 0 0 0 0 0 0 0 0 0 0 0 0 0 0 0 0 0 0 0 0 0 0 0 0 -95 -89 0 -27 -60 0 0 -72 -107 -1 -66 -123 -106 0 -113 -96 -86
0 0 0 0 0 0 0 0 0 0 0 0 0 0 0 0 0 0 0 0 0 0 0 0 0 0 0 0 -29 -92 0 -209 -225 0 -232 -123 -79 -69 -62 -73 -197 -89 -21 -137 -99
0 0 0 0 0 0 0 0 0 0 0 0 0 0 0 0 0 0 0 0 0 0 0 0 0 0 0 0 -33 -52 -164 -150 -136 -58 -149 -120 -78 -149 -27 -23 -111 -117 -176 -208 -160
0 0 0 0 0 0 0 0 0 0 0 0 0 0 0 0 0 0 0 0 0 0 0 0 0 0 0 0 0 -27 -111 -161 -78 -72 -158 -165 -76 -67 -47 -46 -99 -102 -145 -163 -115
0 0 0 0 0 0 0 0 0 0 0 0 0 0 0 0 0 0 0 0 0 0 0 0 0 0 0 0 0 -5 -15 -68 -73 -98 -51 -58 -30 -26 -50 -38 -111 -139 -101 -71 -35
0 0 0 0 0 0 0 0 0 0 0 0 0 0 0 0 0 0 0 0 0 0 0 0 0 0 0 0 0 -15 -15 -28 -42 -6 -85 -142 -27 -26 -70 -71 -37 -36 -32 -27 -15
0 0 0 0 0 0 0 0 0 0 0 0 0 0 0 0 0 0 0 0 0 0 0 0 0 0 0 0 0 0 -25 -20 -48 -14 -44 -52 -52 -54 0 -72 -44 -38 -26 -39 -47
0 0 0 0 0 0 0 0 0 0 0 0 0 0 0 0 0 0 0 0 0 0 0 0 0 0 0 0 0 0 0 0 -98 -97 -110 0 -36 0 -94 -103 -91 -32 -34 -53 -59
0 0 0 0 0 0 0 0 0 0 0 0 0 0 0 0 0 0 0 0 0 0 0 0 0 0 0 0 0 -6 0 -18 0 -65 0 0 0 -93 -72 -56 -69 -32 -89 -58 -22
0 0 0 0 0 0 0 0 0 0 0 0 0 0 0 0 0 0 0 0 0 0 0 0 0 0 -47 0 -41 -75 -12 0 -56 -66 -31 -1 -99 0 -66 -77 -131 -199 -217 -259 0
0 0 0 0 0 0 0 0 0 0 0 0 0 0 0 0 0 0 0 0 0 0 0 0 0 0 0 0 0 -14 -55 -69 -45 -45 -66 -51 -42 -30 -33 -104 -146 -217 -239 -284 -227
0 0 0 0 0 0 0 0 0 0 0 0 0 0 0 0 0 0 0 0 0 0 0 0 0 0 -52 -53 -26 0 -35 -33 0 -10 -7 -18 -14 -41 -187 -234 -338 -378 -136 0 0
0 0 0 0 0 0 0 0 0 0 0 0 0 0 0 0 0 0 0 0 0 0 0 0 -15 -20 -36 -44 -16 -6 0 0 0 0 0 0 0 -44 -85 -104 -186 -329 -65 -320 -273
0 0 0 0 0 0 0 0 0 0 0 0 0 0 0 0 0 0 0 0 0 0 0 0 -11 -7 -15 -18 -9 0 0 0 0 0 0 0 -1 0 -80 -74 -108 -149 -173 0 -242
0 0 0 0 0 0 0 0 0 0 0 0 0 0 0 0 0 0 0 0 0 0 0 0 -15 -19 -23 0 0 -6 -8 0 0 0 0 -31 -20 -44 0 0 0 -22 -392 0 -188
0 0 0 0 0 0 0 0 0 0 0 0 0 0 0 0 0 0 0 0 0 0 0 0 0 0 -22 0 0 0 -14 0 0 0 0 0 -25 -66 0 0 0 0 -244 -291 0
0 0 0 0 0 0 0 0 0 0 0 0 0 0 0 0 0 0 0 0 0 0 0 0 -64 -4 -13 -29 0 -105 -59 0 0 0 -76 -56 -28 -63 0 0 0 0 -84 -97 -141
0 0 0 0 0 0 0 0 0 0 0 -3 -3 -1 0 0 0 0 0 0 -48 -26 -12 0 -15 -5 0 0 -85 -79 0 0 -10 -44 -56 -33 -164 -186 0 0 -206 -241 0 -186 -177
0 0 0 0 0 0 0 0 0 0 0 0 0 -23 -4 -11 -6 -5 -28 -59 -67 -76 0 -32 -42 -28 -51 -34 -42 -30 -26 -19 -35 -43 -41 -48 -23 -70 -136 -122 0 0 0 -168 0
0 0 0 0 0 0 0 0 0 0 0 0 0 0 0 0 -4 0 -57 -71 -55 -34 -59 -55 -57 -74 -70 -86 -98 -98 -72 -24 -32 -34 -18 0 -38 -180 0 0 0 0 -179 0 0
0 0 0 0 0 0 0 0 0 0 0 0 0 0 0 -75 0 -62 -56 0 -47 -35 -1 -55 -43 -7 0 0 0 0 -74 -22 -17 -27 -27 -13 -67 -9 0 0 0 -77 -106 0 0
0 0 0 0 0 0 0 0 0 0 0 0 0 0 0 0 -56 -8 -2 -82 -27 -20 -33 0 0 0 0 0 0 -92 -54 -27 -35 -41 -22 -23 -29 0 0 0 0 -91 0 0 0
0 0 -54 -20 0 0 0 0 0 0 0 0 0 0 0 0 0 -9 -72 -146 -107 -124 -84 -91 0 0 0 0 -166 -107 -56 -38 -47 -49 -51 -13 -7 0 -73 0 0 0 -16 0 0
0 0 0 0 0 0 0 -44 -36 0 -18 -13 0 0 0 0 -9 -11 -150 -154 0 0 -190 -109 -87 -84 -71 -115 -102 -93 -69 -29 -39 -58 -35 -35 0 0 0 0 0 0 0 0 0
0 0 0 0 0 0 -58 -48 -29 0 -17 -38 -157 -3 0 0 -29 -22 -116 -143 -95 0 -135 -142 -159 -109 -94 -74 -94 -75 -8 -39 -47 -83 -105 -49 0 0 0 0 -7 -47 0 0 0
0 0 0 0 0 0 -38 -67 -55 0 -95 -111 -209 -178 -62 -170 -76 -118 -135 -9 -37 -39 -83 -70 -88 -55 -91 -83 -84 -50 -9 -22 -59 -122 0 0 0 0 0 0 -25 -36 0 0 0
Wind_Speed
20 20 19 20 19 19 18 18 18 18 18 18 18 19 19 21 23 19 23 21 19 18 19 18 20 22 18 14 12 14 18 16 9 22 24 20 17 18 18 13 14 17 18 14 18
20 20 20 19 19 19 19 19 19 19 19 19 19 19 19 20 19 26 26 24 21 19 19 18 19 20 23 14 11 14 26 12 9 14 17 13 15 13 16 14 15 17 16 14 14
19 18 18 19 19 19 19 20 20 20 20 20 20 20 19 18 15 21 27 26 22 20 19 20 19 21 20 19 7 13 13 14 16 18 18 11 10 8 10 11 7 7 7 11 12
21 18 16 17 17 18 19 19 20 20 21 20 20 20 19 13 8 9 26 24 19 19 20 20 19 22 26 24 13 11 10 15 14 16 12 5 8 5 11 12 8 6 8 11 13
22 20 18 16 15 18 19 19 19 20 20 20 19 19 14 11 16 19 5 5 4 9 23 22 22 23 22 20 20 11 9 7 7 10 19 11 7 5 13 15 11 9 8 9 10
22 22 21 20 16 13 17 19 20 20 20 20 19 18 12 14 21 14 3 2 2 6 24 22 23 24 21 24 25 20 9 6 11 5 4 14 14 14 9 11 8 8 7 9 10
24 24 23 21 18 13 14 15 17 18 19 19 15 13 14 22 14 6 2 2 2 13 28 26 26 22 25 24 23 26 22 19 21 25 14 23 20 11 6 11 10 10 9 7 5
26 26 25 23 19 15 13 14 15 17 17 14 15 18 22 22 22 23 20 24 25 26 27 26 24 23 23 28 25 24 22 25 21 21 15 21 24 13 5 8 9 5 3 4 6
28 28 27 25 22 17 14 13 14 14 14 13 9 18 23 19 22 23 20 24 23 24 24 26 24 23 26 27 27 25 28 27 23 20 23 13 20 17 6 1 7 2 2 4 6
30 29 29 27 24 19 16 13 11 13 15 16 18 18 19 18 20 24 25 25 23 19 22 22 22 22 22 23 26 29 25 24 28 24 17 18 19 8 6 4 4 9 9 12 11
31 31 30 29 26 21 18 14 13 13 15 17 19 17 13 21 23 20 17 23 24 23 24 23 21 20 20 5 19 11 28 24 16 10 10 5 5 7 5 4 13 13 10 7 9
33 33 31 30 28 22 9 18 14 16 17 18 22 22 23 19 19 21 22 25 24 24 23 23 21 6 10 16 17 14 13 17 20 12 7 7 7 13 17 6 9 10 15 18 16
34 33 32 31 27 19 9 18 18 18 20 22 20 21 21 21 22 23 24 24 23 22 21 22 20 10 19 19 21 18 16 17 24 30 16 13 23 15 15 13 14 17 14 15 19
36 35 33 32 21 19 20 17 15 15 23 20 13 18 23 20 20 27 20 17 22 24 24 23 20 10 16 15 14 10 28 32 34 34 35 32 33 27 18 20 20 20 18 17 16
37 36 33 28 26 21 22 21 17 18 19 12 10 14 14 23 7 19 19 13 20 24 26 30 28 4 9 12 27 31 28 31 32 33 36 30 33 26 27 31 31 28 19 14 8
36 35 34 20 19 24 24 23 17 16 17 9 10 8 12 19 21 23 13 13 10 16 24 26 25 26 28 30 29 32 30 32 33 34 30 29 30 32 30 31 36 33 39 9 7
38 35 31 23 16 21 23 20 16 11 17 8 6 8 11 12 14 19 10 8 2 4 12 19 19 27 23 25 29 32 33 35 35 33 32 31 29 22 30 32 30 36 42 14 3
38 35 23 16 23 23 18 16 18 19 8 8 20 9 8 12 10 10 5 5 8 5 6 3 25 22 20 17 23 21 20 22 33 36 39 35 24 24 24 28 29 38 35 26 21
35 27 23 22 15 17 16 20 19 14 17 21 23 3 4 7 5 5 7 3 12 11 12 25 12 28 21 17 15 22 24 18 26 31 36 25 24 21 26 30 36 35 34 31 27
30 26 23 17 4 10 17 26 25 28 30 32 19 23 17 15 16 12 19 14 13 10 17 23 18 29 31 28 19 30 24 24 24 27 33 27 31 25 31 34 35 38 37 34 30
23 21 13 5 8 12 20 24 32 33 32 33 28 29 27 19 15 17 12 18 13 13 19 23 19 24 30 26 35 33 24 21 18 21 31 36 29 26 28 27 33 33 31 27 24
21 17 7 6 14 16 22 25 28 36 35 26 25 32 30 20 19 24 30 23 19 6 12 15 20 24 27 29 28 12 19 20 23 27 22 28 30 21 23 27 29 29 24 21 20
24 20 21 12 19 24 28 33 36 37 36 28 29 33 30 31 21 19 20 27 25 14 14 18 22 28 29 23 25 23 29 26 21 25 28 34 30 21 24 24 29 25 20 19 18
19 18 19 13 22 27 31 31 32 32 34 31 37 36 35 32 32 24 9 16 13 11 16 18 20 21 21 22 31 30 30 25 21 24 27 29 28 26 27 24 25 23 17 14 13
13 17 19 19 22 27 29 30 32 32 31 28 34 37 38 34 29 23 11 11 14 14 16 21 23 27 24 28 32 31 11 19 21 21 25 27 25 24 22 23 23 20 18 15 13
17 21 23 30 26 27 29 27 27 29 27 29 29 34 39 38 34 27 16 16 19 19 20 19 22 21 20 27 28 31 14 13 19 17 20 20 20 18 20 22 20 19 17 16 14
22 25 23 25 26 27 24 27 30 29 33 22 32 32 31 29 24 16 17 14 17 17 19 20 22 22 24 29 33 25 15 13 17 20 21 22 16 15 19 18 16 17 18 18 18
Wind_Direction
329 323 315 313 307 298 288 279 276 278 276 277 277 275 264 258 244 171 175 168 166 194 227 231 221 212 207 185 5 3 337 0 36 280 257 240 264 298 348 1 8 33 347 86 105
330 325 317 309 302 297 288 282 278 279 279 277 279 281 272 272 277 203 185 193 199 196 232 233 233 241 233 204 38 4 329 359 69 103 136 197 231 4 298 21 16 56 94 85 113
328 322 314 306 297 292 286 287 287 282 283 283 284 283 277 282 301 221 184 189 186 187 216 233 236 256 259 239 42 11 35 99 138 153 160 89 160 78 56 17 79 66 46 105 123
328 323 314 302 291 285 281 274 272 278 288 292 291 287 283 303 337 329 166 170 158 175 217 230 246 274 268 264 50 344 74 77 148 166 136 100 184 40 28 18 94 60 52 102 130
324 321 315 304 283 282 280 272 265 262 266 276 288 296 308 298 300 275 313 122 29 324 217 234 251 268 297 291 291 27 27 103 103 162 211 197 17 53 6 26 58 69 82 121 131
320 320 317 311 290 260 268 271 270 267 265 274 293 302 312 289 273 300 357 311 339 344 238 227 259 281 281 284 298 334 31 75 38 100 151 323 345 0 33 31 67 57 115 134 136
318 317 316 312 298 263 252 246 245 248 250 255 334 340 172 185 300 24 357 303 107 291 250 253 286 299 282 290 293 304 322 332 328 335 345 314 335 346 14 3 16 15 58 127 89
316 316 315 313 302 272 250 234 232 231 222 161 154 179 178 202 215 170 146 172 183 204 228 260 286 297 287 297 310 324 331 324 337 329 352 329 321 359 34 16 3 24 33 51 17
314 314 313 311 306 280 251 231 211 209 148 53 160 172 190 222 190 197 152 169 176 194 220 252 279 279 284 307 308 322 308 308 324 346 341 353 328 344 177 56 1 27 34 352 357
312 311 311 310 305 285 254 183 151 203 126 132 184 180 199 172 168 180 185 184 191 175 206 211 230 232 284 299 285 312 295 307 286 323 358 340 352 11 332 278 1 356 3 359 340
310 309 308 306 303 286 272 136 210 159 158 145 143 151 204 157 174 161 146 175 215 194 205 213 209 210 245 135 224 224 264 243 236 344 346 24 263 322 317 285 343 355 359 342 319
308 307 305 302 297 278 354 186 173 260 228 194 204 203 210 211 132 173 164 180 189 205 199 209 208 128 219 215 212 218 220 235 253 224 320 225 273 253 356 330 339 349 339 347 343
306 305 303 299 290 310 127 184 224 251 257 230 184 181 195 180 204 180 165 175 183 179 193 201 214 17 228 231 231 220 227 242 292 301 294 338 332 8 3 5 346 338 339 337 327
305 303 303 300 312 305 257 190 189 213 295 229 137 179 196 172 191 211 157 151 184 200 213 222 230 178 209 210 215 213 292 300 295 291 284 319 271 328 344 338 331 330 316 320 330
305 301 299 302 288 286 272 282 324 314 313 10 105 170 130 165 16 162 155 141 187 214 235 253 259 176 198 214 274 285 320 294 284 277 290 321 322 336 329 323 326 330 337 341 3
300 299 297 316 312 263 263 275 316 309 313 353 69 69 118 165 191 204 150 154 150 191 226 245 248 259 259 278 287 296 307 313 314 317 321 326 331 328 327 330 325 329 327 339 327
299 291 293 295 295 296 283 286 291 309 296 338 29 92 130 136 162 201 128 129 87 122 190 217 225 244 325 324 299 311 311 313 316 317 322 338 332 340 332 337 345 339 342 356 235
299 290 301 302 278 281 288 283 279 282 320 10 209 103 116 151 153 142 125 135 169 179 179 260 315 352 334 347 341 343 329 335 322 316 304 328 339 339 343 338 342 338 347 351 334
299 304 298 280 286 278 281 267 273 281 292 318 277 323 110 145 150 149 167 237 324 333 321 298 334 315 345 357 360 341 334 340 330 324 309 335 345 354 349 344 339 348 337 336 336
302 301 289 284 341 285 274 266 269 265 277 280 311 257 303 307 298 293 307 326 336 333 327 310 335 309 312 326 336 321 342 335 337 330 317 329 329 343 339 339 340 337 341 337 340
315 302 324 51 320 291 272 273 264 260 269 273 278 278 301 318 320 301 322 323 334 326 315 304 334 332 317 323 307 313 332 340 346 340 324 317 330 347 348 350 341 340 346 354 1
311 301 335 3 309 295 280 276 273 261 272 298 285 276 281 314 311 300 288 301 305 334 324 328 335 330 328 263 319 324 335 341 334 329 335 330 329 356 354 350 349 351 359 8 25
301 294 285 295 299 284 271 266 262 262 273 289 283 275 281 279 302 305 296 290 276 300 324 339 331 328 327 330 323 336 321 332 341 334 331 324 332 353 352 350 349 358 20 33 37
312 304 303 294 291 278 277 275 276 282 277 285 271 273 276 281 279 300 262 295 311 328 335 341 334 332 328 326 313 320 322 331 339 332 332 331 334 344 347 354 356 360 13 24 46
337 310 309 293 289 286 280 283 282 284 286 288 280 271 271 282 281 288 286 289 300 314 331 337 314 320 327 319 313 314 323 329 332 339 337 337 340 347 358 0 2 7 13 30 42
318 306 298 276 286 289 282 290 293 293 293 287 304 296 266 274 279 287 281 283 291 307 315 313 322 329 328 322 318 316 336 339 336 346 350 351 348 3 6 7 19 31 36 44 42
313 302 297 290 285 285 307 302 292 300 281 310 306 298 287 289 289 292 287 285 295 307 316 314 319 322 319 320 310 319 340 338 337 339 343 340 354 8 8 19 30 53 72 81 84